Weather History for Two Harbors, MN

Change the Weather History Date:

Sunday, February 17, 2013

  Actual Average Record
Temperature  
Mean Temperature 4 °F -  
Max Temperature 24 °F 26 °F 51 °F (1981)
Min Temperature -16 °F 9 °F -21 °F (1979)
Degree Days  
Heating Degree Days 61    
Moisture  
Dew Point -1 °F    
Average Humidity 66    
Maximum Humidity 78    
Minimum Humidity 54    
Precipitation  
Precipitation 0.00 in - - ()
Sea Level Pressure  
Sea Level Pressure 29.88 in    
Wind  
Wind Speed 4 mph (ESE)    
Max Wind Speed 13 mph    
Max Gust Speed 18 mph    
Visibility 10 miles    
Events Snow    
Averages and records for this station are not official NWS values.
T = Trace of Precipitation, MM = Missing Value Source: NWS Daily Summary

Daily Weather History Graph

Daily Weather History Graph

Search for Another Location

Airport:

Trip Planner

Search our weather history database for the weather conditions in past years. The results will help you decide how hot, cold, wet, or windy it might be!

Date:

Astronomy

Feb. 17, 2013 Rise Set
Actual Time 7:07 AM CST 5:34 PM CST
Civil Twilight 6:36 AM CST 6:06 PM CST
Nautical Twilight 6:01 AM CST 6:41 PM CST
Astronomical Twilight 5:25 AM CST 7:16 PM CST
Moon 10:30 AM CST (2/17) 1:00 AM CST (2/17)
Length of Visible Light 11h 29m
Length of Day
10h 27m
Waxing Crescent, 49% of the Moon is Illuminated
Feb 17
Waxing Crescent
Feb 17
First Quarter
Feb 25
Full
Mar 4
Last Quarter
Mar 11
New

Hourly Weather History & Observations

Time (CST) Temp. Windchill Dew Point Humidity Pressure Visibility Wind Dir Wind Speed Gust Speed Precip Events Conditions
12:11 AM -9.4 °F -18.6 °F -16.6 °F 71% 30.06 in 10.0 mi WNW 3.5 mph - N/A   Clear
12:31 AM -13.0 °F -22.7 °F -20.2 °F 70% 30.06 in 10.0 mi West 3.5 mph - N/A   Clear
12:52 AM -5.8 °F -14.5 °F -11.2 °F 77% 30.06 in 10.0 mi West 3.5 mph - N/A   Clear
1:11 AM -14.8 °F - -22.0 °F 70% 30.06 in 10.0 mi Calm Calm - N/A   Clear
1:31 AM -11.2 °F - -18.4 °F 70% 30.05 in 10.0 mi Calm Calm - N/A   Clear
1:52 AM -16.6 °F - -23.8 °F 70% 30.06 in 10.0 mi Calm Calm - N/A   Clear
2:11 AM -16.6 °F -26.8 °F -23.8 °F 70% 30.06 in 10.0 mi WNW 3.5 mph - N/A   Clear
2:31 AM -14.8 °F -24.8 °F -22.0 °F 70% 30.05 in 10.0 mi WNW 3.5 mph - N/A   Clear
2:52 AM -16.6 °F - -23.8 °F 70% 30.04 in 10.0 mi Calm Calm - N/A   Clear
3:11 AM -16.6 °F - -23.8 °F 70% 30.04 in 10.0 mi Calm Calm - N/A   Clear
3:31 AM -16.6 °F -26.8 °F -23.8 °F 70% 30.04 in 10.0 mi WNW 3.5 mph - N/A   Clear
3:52 AM -16.6 °F - -23.8 °F 70% 30.03 in 10.0 mi Calm Calm - N/A   Clear
4:11 AM -14.8 °F - -22.0 °F 70% 30.02 in 10.0 mi Calm Calm - N/A   Clear
4:31 AM -14.8 °F -24.8 °F -23.8 °F 64% 30.02 in 10.0 mi WNW 3.5 mph - N/A   Clear
4:52 AM -16.6 °F - -23.8 °F 70% 30.02 in 10.0 mi Calm Calm - N/A   Clear
5:11 AM -16.6 °F - -23.8 °F 70% 30.01 in 10.0 mi Calm Calm - N/A   Clear
5:51 AM -11.2 °F - -18.4 °F 70% 30.01 in 10.0 mi Calm Calm - N/A   Clear
6:11 AM -13.0 °F - -20.2 °F 70% 30.01 in 10.0 mi Calm Calm - N/A   Clear
6:31 AM -13.0 °F - -20.2 °F 70% 30.00 in 10.0 mi Calm Calm - N/A   Mostly Cloudy
6:51 AM -11.2 °F - -18.4 °F 70% 29.99 in 10.0 mi Calm Calm - N/A   Overcast
7:11 AM -9.4 °F - -16.6 °F 71% 29.98 in 10.0 mi Calm Calm - N/A   Overcast
7:31 AM -5.8 °F - -11.2 °F 77% 29.98 in 10.0 mi Calm Calm - N/A   Overcast
7:51 AM -2.2 °F - -7.6 °F 78% 29.97 in 10.0 mi Calm Calm - N/A   Overcast
8:11 AM 1.4 °F - -4.0 °F 78% 29.98 in 10.0 mi Calm Calm - N/A   Scattered Clouds
8:31 AM 5.0 °F - -2.2 °F 72% 29.98 in 10.0 mi Calm Calm - N/A   Scattered Clouds
8:51 AM 8.6 °F - 1.4 °F 73% 29.97 in 10.0 mi Calm Calm - N/A   Mostly Cloudy
9:11 AM 8.6 °F 2.0 °F -0.4 °F 67% 29.97 in 10.0 mi SSE 3.5 mph - N/A   Mostly Cloudy
9:31 AM 10.4 °F 0.8 °F 1.4 °F 67% 29.96 in 10.0 mi South 5.8 mph - N/A   Mostly Cloudy
9:51 AM 12.2 °F 1.7 °F 1.4 °F 62% 29.96 in 10.0 mi SSE 6.9 mph - N/A   Overcast
10:11 AM 12.2 °F 6.1 °F 1.4 °F 62% 29.95 in 10.0 mi SSE 3.5 mph - N/A   Overcast
10:31 AM 12.2 °F 2.9 °F 1.4 °F 62% 29.95 in 10.0 mi SSE 5.8 mph - N/A   Overcast
10:52 AM 12.2 °F 4.3 °F 1.4 °F 62% 29.94 in 10.0 mi SE 4.6 mph - N/A   Overcast
11:11 AM 14.0 °F 6.5 °F 3.2 °F 62% 29.93 in 10.0 mi East 4.6 mph - N/A   Overcast
11:32 AM 14.0 °F 8.2 °F 3.2 °F 62% 29.93 in 10.0 mi ESE 3.5 mph - N/A   Overcast
11:51 AM 14.0 °F 5.1 °F 3.2 °F 62% 29.92 in 10.0 mi East 5.8 mph - N/A   Overcast
12:12 PM 14.0 °F 3.9 °F 3.2 °F 62% 29.90 in 10.0 mi East 6.9 mph - N/A   Scattered Clouds
12:31 PM 14.0 °F 2.9 °F 3.2 °F 62% 29.89 in 10.0 mi East 8.1 mph - N/A   Scattered Clouds
12:51 PM 15.8 °F 5.1 °F 5.0 °F 62% 29.88 in 10.0 mi East 8.1 mph - N/A   Clear
1:11 PM 15.8 °F 5.1 °F 6.8 °F 68% 29.86 in 7.0 mi East 8.1 mph - N/A   Mostly Cloudy
1:31 PM 15.8 °F 4.2 °F 6.8 °F 68% 29.85 in 3.0 mi East 9.2 mph - N/A Snow Light Snow
1:51 PM 17.6 °F 5.0 °F 8.6 °F 68% 29.84 in 4.0 mi ENE 11.5 mph - N/A   Haze
2:11 PM 17.6 °F 6.4 °F 8.6 °F 68% 29.83 in 4.0 mi ENE 9.2 mph - N/A Snow Light Snow
2:31 PM 17.6 °F 7.3 °F 8.6 °F 68% 29.82 in 7.0 mi ENE 8.1 mph - N/A   Mostly Cloudy
2:51 PM 17.6 °F 6.4 °F 8.6 °F 68% 29.81 in 10.0 mi East 9.2 mph - N/A   Mostly Cloudy
3:11 PM 17.6 °F 6.4 °F 8.6 °F 68% 29.81 in 10.0 mi ENE 9.2 mph - N/A   Overcast
3:31 PM 17.6 °F 9.3 °F 8.6 °F 68% 29.80 in 10.0 mi NE 5.8 mph - N/A   Overcast
3:51 PM 19.4 °F 12.8 °F 8.6 °F 63% 29.79 in 10.0 mi NE 4.6 mph - N/A   Overcast
4:11 PM 19.4 °F 10.4 °F 8.6 °F 63% 29.78 in 10.0 mi NE 6.9 mph - N/A   Overcast
4:31 PM 19.4 °F 10.4 °F 10.4 °F 68% 29.77 in 10.0 mi ENE 6.9 mph - N/A   Overcast
4:51 PM 19.4 °F 10.4 °F 10.4 °F 68% 29.76 in 10.0 mi ENE 6.9 mph - N/A   Overcast
5:11 PM 21.2 °F 12.6 °F 10.4 °F 63% 29.76 in 10.0 mi ENE 6.9 mph - N/A   Overcast
5:31 PM 21.2 °F 13.6 °F 10.4 °F 63% 29.75 in 10.0 mi ENE 5.8 mph - N/A   Overcast
5:51 PM 21.2 °F 16.4 °F 10.4 °F 63% 29.74 in 10.0 mi ENE 3.5 mph - N/A   Overcast
6:11 PM 21.2 °F 16.4 °F 10.4 °F 63% 29.73 in 10.0 mi SE 3.5 mph - N/A   Overcast
6:31 PM 24.8 °F 16.9 °F 12.2 °F 59% 29.73 in 10.0 mi SE 6.9 mph - N/A   Overcast
6:51 PM 24.8 °F 14.6 °F 12.2 °F 59% 29.72 in 10.0 mi SSE 10.4 mph - N/A   Overcast
7:11 PM 24.8 °F 13.4 °F 12.2 °F 59% 29.72 in 10.0 mi SSE 12.7 mph 17.3 mph N/A   Overcast
7:31 PM 24.8 °F 16.1 °F 12.2 °F 59% 29.70 in 10.0 mi SSE 8.1 mph - N/A   Overcast
7:51 PM 24.8 °F 14.0 °F 12.2 °F 59% 29.70 in 10.0 mi SSE 11.5 mph 18.4 mph N/A   Overcast
8:11 PM 24.8 °F 13.4 °F 10.4 °F 54% 29.70 in 10.0 mi SSE 12.7 mph 17.3 mph N/A   Overcast
8:31 PM 24.8 °F 14.0 °F 10.4 °F 54% 29.71 in 10.0 mi SSE 11.5 mph 18.4 mph N/A   Overcast
8:51 PM 23.0 °F 13.1 °F 10.4 °F 59% 29.70 in 10.0 mi SSE 9.2 mph - N/A   Mostly Cloudy
9:12 PM 23.0 °F 13.9 °F 10.4 °F 59% 29.71 in 10.0 mi South 8.1 mph - N/A   Scattered Clouds
9:32 PM 23.0 °F 13.1 °F 10.4 °F 59% 29.71 in 10.0 mi SSE 9.2 mph - N/A   Scattered Clouds
9:51 PM 23.0 °F 13.1 °F 12.2 °F 63% 29.70 in 10.0 mi SSE 9.2 mph - N/A   Scattered Clouds
10:11 PM 23.0 °F 14.7 °F 10.4 °F 59% 29.70 in 10.0 mi SSE 6.9 mph - N/A   Mostly Cloudy
10:31 PM 23.0 °F 13.1 °F 12.2 °F 63% 29.69 in 10.0 mi SSE 9.2 mph - N/A   Overcast
10:51 PM 23.0 °F 14.7 °F 12.2 °F 63% 29.69 in 10.0 mi SSE 6.9 mph - N/A   Mostly Cloudy
11:11 PM 21.2 °F 14.9 °F 10.4 °F 63% 29.68 in 10.0 mi SSE 4.6 mph - N/A   Scattered Clouds
11:31 PM 21.2 °F 14.9 °F 10.4 °F 63% 29.67 in 10.0 mi SSE 4.6 mph - N/A   Scattered Clouds
11:52 PM 21.2 °F 13.6 °F 10.4 °F 63% 29.66 in 10.0 mi SSE 5.8 mph - N/A   Scattered Clouds